When you browse on this site, cookies collect data to enhance your experience and personalize the content and advertising you see.
Visit our Privacy Policy to learn more. By continuing to use the site, you agree to this use of cookies and data.
  • In Sweden
  • List of Countries
  • For 7 days
  • Water Temperature
  • Weather Map
  • Weather Widgets
  • user-avatar
    Login

    Hourly Weather Cuiaba

    Today, 21 August, Wednesday

    Time Temperature Precipitation Wind Pressure Humidity
    00:00 +25°C° 0 mm 1 mps 743 mmHg 55%
    01:00 +24°C° 0 mm 1 mps 743 mmHg 57%
    02:00 +23°C° 0 mm 1 mps 743 mmHg 59%
    03:00 +23°C° 0 mm 2 mps 743 mmHg 60%
    04:00 +23°C° 0 mm 2 mps 743 mmHg 61%
    05:00 +21°C° 0 mm 2 mps 743 mmHg 62%
    06:00 +24°C° 0 mm 2 mps 743 mmHg 58%
    07:00 +25°C° 0 mm 2 mps 744 mmHg 53%
    08:00 +26°C° 0 mm 2 mps 744 mmHg 49%
    09:00 +29°C° 0 mm 2 mps 744 mmHg 42%
    10:00 +34°C° 0 mm 2 mps 744 mmHg 35%
    11:00 +36°C° 0 mm 1 mps 744 mmHg 29%
    12:00 +39°C° 0 mm 1 mps 743 mmHg 25%
    13:00 +40°C° 0 mm 1 mps 742 mmHg 22%
    14:00 +41°C° 0 mm 1 mps 742 mmHg 19%
    15:00 +39°C° 0 mm 1 mps 741 mmHg 22%
    16:00 +37°C° 0 mm 1 mps 741 mmHg 25%
    17:00 +35°C° 0 mm 1 mps 741 mmHg 27%
    18:00 +33°C° 0 mm 1 mps 741 mmHg 31%
    19:00 +31°C° 0 mm 1 mps 741 mmHg 35%
    20:00 +29°C° 0 mm 1 mps 741 mmHg 39%
    21:00 +29°C° 0 mm 1 mps 741 mmHg 40%
    22:00 +28°C° 0 mm 1 mps 742 mmHg 40%
    23:00 +28°C° 0 mm 1 mps 742 mmHg 41%

    Tomorrow, 22 August, Thursday

    Time Temperature Precipitation Wind Pressure Humidity
    00:00 +27°C° 0 mm 1 mps 741 mmHg 42%
    01:00 +26°C° 0 mm 1 mps 741 mmHg 43%
    02:00 +26°C° 0 mm 1 mps 741 mmHg 45%
    03:00 +25°C° 0 mm 1 mps 741 mmHg 45%
    04:00 +25°C° 0 mm 1 mps 741 mmHg 46%
    05:00 +24°C° 0 mm 1 mps 741 mmHg 47%
    06:00 +26°C° 0 mm 1 mps 742 mmHg 42%
    07:00 +29°C° 0 mm 1 mps 742 mmHg 36%
    08:00 +31°C° 0 mm 1 mps 743 mmHg 31%
    09:00 +34°C° 0 mm 1 mps 743 mmHg 26%
    10:00 +39°C° 0 mm 1 mps 743 mmHg 21%
    11:00 +43°C° 0 mm 1 mps 743 mmHg 16%
    12:00 +42°C° 0 mm 1 mps 742 mmHg 15%
    13:00 +42°C° 0 mm 2 mps 741 mmHg 15%
    14:00 +42°C° 0 mm 2 mps 740 mmHg 15%
    15:00 +41°C° 0 mm 2 mps 740 mmHg 16%
    16:00 +40°C° 0 mm 2 mps 740 mmHg 17%
    17:00 +39°C° 0 mm 2 mps 740 mmHg 18%
    18:00 +37°C° 0 mm 2 mps 741 mmHg 21%
    19:00 +35°C° 0 mm 2 mps 741 mmHg 24%
    20:00 +32°C° 0 mm 1 mps 742 mmHg 26%
    21:00 +31°C° 0 mm 1 mps 742 mmHg 27%
    22:00 +30°C° 0 mm 1 mps 742 mmHg 28%
    23:00 +30°C° 0 mm 1 mps 742 mmHg 29%

    Day after tomorrow, 23 August, Friday

    Time Temperature Precipitation Wind Pressure Humidity
    00:00 +29°C° 0 mm 1 mps 742 mmHg 30%
    01:00 +29°C° 0 mm 1 mps 742 mmHg 31%
    02:00 +28°C° 0 mm 1 mps 741 mmHg 32%
    03:00 +27°C° 0 mm 1 mps 741 mmHg 34%
    04:00 +26°C° 0 mm 1 mps 741 mmHg 36%
    05:00 +26°C° 0 mm 1 mps 741 mmHg 38%
    06:00 +28°C° 0 mm 1 mps 742 mmHg 34%
    07:00 +30°C° 0 mm 1 mps 742 mmHg 30%
    08:00 +32°C° 0 mm 1 mps 743 mmHg 26%
    09:00 +36°C° 0 mm 2 mps 743 mmHg 23%
    10:00 +39°C° 0 mm 2 mps 743 mmHg 19%
    11:00 +42°C° 0 mm 2 mps 743 mmHg 15%
    12:00 +42°C° 0 mm 2 mps 742 mmHg 15%
    13:00 +43°C° 0 mm 2 mps 741 mmHg 14%
    14:00 +43°C° 0 mm 1 mps 740 mmHg 13%
    15:00 +41°C° 0 mm 1 mps 740 mmHg 14%
    16:00 +40°C° 0 mm 1 mps 740 mmHg 16%
    17:00 +37°C° 0 mm 1 mps 739 mmHg 17%
    18:00 +35°C° 0 mm 1 mps 740 mmHg 19%
    19:00 +34°C° 0 mm 1 mps 740 mmHg 21%
    20:00 +32°C° 0 mm 1 mps 740 mmHg 23%
    21:00 +31°C° 0 mm 1 mps 740 mmHg 25%
    22:00 +30°C° 0 mm 1 mps 740 mmHg 26%
    23:00 +29°C° 0 mm 1 mps 741 mmHg 28%

    24 August, Saturday

    Time Temperature Precipitation Wind Pressure Humidity
    00:00 +28°C° 0 mm 1 mps 740 mmHg 30%
    01:00 +27°C° 0 mm 1 mps 740 mmHg 33%
    02:00 +26°C° 0 mm 1 mps 739 mmHg 35%
    03:00 +25°C° 0 mm 1 mps 740 mmHg 37%
    04:00 +24°C° 0 mm 2 mps 740 mmHg 39%
    05:00 +23°C° 0 mm 2 mps 740 mmHg 41%
    06:00 +26°C° 0 mm 2 mps 740 mmHg 36%
    07:00 +29°C° 0 mm 2 mps 741 mmHg 31%
    08:00 +32°C° 0 mm 1 mps 742 mmHg 26%
    09:00 +36°C° 0 mm 2 mps 742 mmHg 22%
    10:00 +39°C° 0 mm 2 mps 742 mmHg 19%
    11:00 +43°C° 0 mm 3 mps 742 mmHg 15%
    12:00 +42°C° 0 mm 2 mps 741 mmHg 14%
    13:00 +43°C° 0 mm 2 mps 740 mmHg 13%
    14:00 +43°C° 0 mm 2 mps 739 mmHg 13%
    15:00 +42°C° 0 mm 2 mps 738 mmHg 14%
    16:00 +40°C° 0 mm 2 mps 738 mmHg 15%
    17:00 +39°C° 0 mm 2 mps 738 mmHg 16%
    18:00 +38°C° 0 mm 2 mps 738 mmHg 18%
    19:00 +36°C° 0 mm 2 mps 739 mmHg 19%
    20:00 +35°C° 0 mm 2 mps 739 mmHg 21%
    21:00 +34°C° 0 mm 2 mps 739 mmHg 22%
    22:00 +32°C° 0 mm 1 mps 739 mmHg 24%
    23:00 +31°C° 0 mm 1 mps 740 mmHg 25%

    25 August, Sunday

    Time Temperature Precipitation Wind Pressure Humidity
    00:00 +30°C° 0 mm 1 mps 739 mmHg 26%
    01:00 +30°C° 0 mm 1 mps 739 mmHg 27%
    02:00 +29°C° 0 mm 1 mps 739 mmHg 28%
    03:00 +28°C° 0 mm 1 mps 739 mmHg 30%
    04:00 +27°C° 0 mm 1 mps 739 mmHg 32%
    05:00 +26°C° 0 mm 1 mps 739 mmHg 33%
    06:00 +29°C° 0 mm 1 mps 740 mmHg 29%
    07:00 +32°C° 0 mm 2 mps 741 mmHg 25%
    08:00 +35°C° 0 mm 2 mps 741 mmHg 21%
    09:00 +38°C° 0 mm 2 mps 741 mmHg 18%
    10:00 +40°C° 0 mm 3 mps 741 mmHg 16%
    11:00 +44°C° 0 mm 4 mps 741 mmHg 13%
    12:00 +43°C° 0 mm 3 mps 741 mmHg 13%
    13:00 +43°C° 0 mm 3 mps 740 mmHg 14%
    14:00 +41°C° 0 mm 2 mps 739 mmHg 14%
    15:00 +40°C° 0 mm 2 mps 739 mmHg 15%
    16:00 +40°C° 0 mm 2 mps 739 mmHg 16%
    17:00 +39°C° 0 mm 2 mps 739 mmHg 17%
    18:00 +37°C° 0 mm 2 mps 739 mmHg 19%
    19:00 +35°C° 0 mm 2 mps 740 mmHg 20%
    20:00 +34°C° 0 mm 2 mps 740 mmHg 22%
    21:00 +32°C° 0 mm 1 mps 740 mmHg 24%
    22:00 +30°C° 0 mm 1 mps 740 mmHg 26%
    23:00 +29°C° 0 mm 1 mps 740 mmHg 28%

    26 August, Monday

    Time Temperature Precipitation Wind Pressure Humidity
    00:00 +29°C° 0 mm 1 mps 740 mmHg 29%
    01:00 +28°C° 0 mm 1 mps 740 mmHg 29%
    02:00 +28°C° 0 mm 1 mps 740 mmHg 30%
    03:00 +27°C° 0 mm 1 mps 740 mmHg 32%
    04:00 +27°C° 0 mm 1 mps 740 mmHg 34%
    05:00 +26°C° 0 mm 1 mps 740 mmHg 36%
    06:00 +28°C° 0 mm 1 mps 741 mmHg 32%
    07:00 +31°C° 0 mm 2 mps 742 mmHg 28%
    08:00 +34°C° 0 mm 3 mps 743 mmHg 23%
    09:00 +37°C° 0 mm 4 mps 743 mmHg 21%
    10:00 +40°C° 0 mm 4 mps 743 mmHg 18%
    11:00 +42°C° 0 mm 5 mps 743 mmHg 16%
    12:00 +42°C° 0 mm 4 mps 742 mmHg 15%
    13:00 +43°C° 0 mm 3 mps 741 mmHg 14%
    14:00 +43°C° 0 mm 3 mps 740 mmHg 13%
    15:00 +41°C° 0 mm 2 mps 740 mmHg 15%
    16:00 +39°C° 0 mm 2 mps 740 mmHg 16%
    17:00 +37°C° 0 mm 1 mps 740 mmHg 17%
    18:00 +35°C° 0 mm 1 mps 740 mmHg 19%
    19:00 +34°C° 0 mm 1 mps 740 mmHg 21%
    20:00 +32°C° 0 mm 2 mps 741 mmHg 23%
    21:00 +32°C° 0 mm 2 mps 741 mmHg 24%
    22:00 +32°C° 0 mm 2 mps 741 mmHg 24%
    23:00 +32°C° 0 mm 2 mps 742 mmHg 24%
    Show more